STARLINK-11698, 64325

Orbit data source: Space-Track

STARLINK-11698, 64325 is a payload satellite owned by SpaceX/Seattle (US) in LEO that was launched on Tue, 10 Jun 2025 UTC via an FALCON 9 launch vehicle from the Air Force Eastern Test Range (AFETR). Payload-class satellites include a variety of spacecraft equipped with specific instruments for various scientific and technological missions. These include communications satellites like Starlink; space stations such as the ISS; scientific satellites like the Hubble; Earth observation satellites from companies like Planet Labs, Umbra, and HawkEye 360; GPS; miniature CubeSats for education and research; and military/defense satellites.

Loading next visibility...
Identifier
64325, 2025-124J
Orbit
LEO
Country
Flag of USUS
Related business
Manufacturer
SpaceX/Seattle
Mission
Operational Commercial Communications
Bus & Motor
STARLINK V2M, Unknown motor
Mass
730 kg wet, ~700 kg dry
Launch date (UTC)
2025-06-10 (3 months ago)
Launch vehicle
FALCON 9
Launch site
Air Force Eastern Test Range (AFETR)
Object type
Payload
Rocket body
Debris
Shape & HBR
Box + 2 Pan, 14.5 m
Radar Cross Section
36.964 m², Large (>1 m²)

Expand to show TLE details & history
Last TLE update: 5 hours ago

TLE from 5 hours ago
0 STARLINK-11698
1 64325U 25124J   25242.92542514  .00231598  00000-0  17514-2 0  9999
2 64325  43.0002  98.9455 0002672 256.8422 103.2148 15.70935891 12838
Epoch: 2025-08-30T22:12Z
TLE epoch observation values (Epoch: 2025-08-30T22:12:36.732Z)
Latitude
0.00003°
Longitude
146.43975°
Altitude
356.404 km
Speed
7.697 km/s
True Right ascension
06h 35m 46s
True Declination
0° 00' 00"
Sunlit
Object was in daylight at epoch
Visualization orbit readout
Latitude
Unknown
Longitude
Unknown
Altitude
Unknown
Speed
Unknown
Apparent Right ascension
Unknown
Apparent Declination
Unknown
Sunlit
N/A
Visualization observer readout
Local Sidereal Time
19:08:25
Azimuth
Unknown
Elevation
Unknown
Doppler factor
Unknown
Orbital elements
Apogee altitude
360.003 km
Perigee altitude
356.403 km
Semi-major axis
6,736.34 km
Eccentricity
0.00027
Inclination
43.0002°
RAAN
98.9455°
Arg. of periapsis
256.8422°
True anomaly
103.24461°
Mean anomaly
103.2148°
Eccentric anomaly
103.2297°
Mean motion
3.92561 °/min
Orbital period
91.71 mins
BSTAR
0.0017514
Loading maneuver chart data...
Computing Atmospheric mass density...
Loading historical data...
Loading historical data...
Loading historical data...
Loading historical data...
Loading historical data...
Loading historical data...
Loading historical data...

Documentation

Showing up to 5 results
|